Weather History for Henderson, NV

Change the Weather History Date:

Sunday, December 9, 2012

  Actual Average (KLAS) Record (KLAS)
Temperature  
Mean Temperature 48 °F 48 °F  
Max Temperature 57 °F 57 °F 71 °F (1950)
Min Temperature 39 °F 39 °F 16 °F (1956)
Degree Days  
Heating Degree Days 17 17  
Month to date heating degree days 145  
Since 1 July heating degree days 454  
Cooling Degree Days 0 0  
Month to date cooling degree days 0  
Year to date cooling degree days 3568  
Moisture  
Dew Point 19 °F    
Average Humidity 31    
Maximum Humidity 44    
Minimum Humidity 22    
Precipitation  
Precipitation 0.00 in 0.01 in 0.54 in (1965)
Month to date precipitation 0.11  
Year to date precipitation 3.80  
Snow  
Snow 0.00 in 0.00 in 0.00 in (2013)
Month to date snowfall 0.0  
Since 1 July snowfall 0.0  
Snow Depth -    
Sea Level Pressure  
Sea Level Pressure 30.15 in    
Wind  
Wind Speed 6 mph (ENE)    
Max Wind Speed 16 mph    
Max Gust Speed 22 mph    
Visibility 10 miles    
Events      
T = Trace of Precipitation, MM = Missing Value Source: NWS Daily Summary

Daily Weather History Graph

Daily Weather History Graph

Search for Another Location

Airport:

Trip Planner

Search our weather history database for the weather conditions in past years. The results will help you decide how hot, cold, wet, or windy it might be!

Date:

Astronomy

Dec. 09, 2012 Rise Set
Actual Time 6:39 AM PST 4:26 PM PST
Civil Twilight 6:11 AM PST 4:54 PM PST
Nautical Twilight 5:39 AM PST 5:26 PM PST
Astronomical Twilight 5:08 AM PST 5:58 PM PST
Moon 2:23 AM PST (12/9) 1:31 PM PST (12/9)
Length of Visible Light 10h 43m
Length of Day
9h 46m
Waning Crescent, 17% of the Moon is Illuminated
Dec 9
Waning Crescent
Dec 13
New
Dec 19
First Quarter
Dec 28
Full
Jan 4
Last Quarter

Hourly Weather History & Observations

Time (PST) Temp. Windchill Dew Point Humidity Pressure Visibility Wind Dir Wind Speed Gust Speed Precip Events Conditions
12:56 AM 47.8 °F - 15.1 °F 27% 29.95 in 10.0 mi South 8.1 mph - N/A   Clear
1:56 AM 45.0 °F - 17.1 °F 33% 29.98 in 10.0 mi Calm Calm - N/A   Clear
2:56 AM 48.9 °F - 18.1 °F 30% 29.98 in 10.0 mi Calm Calm - N/A   Clear
3:56 AM 47.8 °F - 21.0 °F 35% 29.99 in 10.0 mi SSE 6.9 mph - N/A   Clear
4:56 AM 43.9 °F - 20.1 °F 39% 30.01 in 10.0 mi Calm Calm - N/A   Clear
5:56 AM 45.0 °F - 21.0 °F 39% 30.03 in 10.0 mi Calm Calm - N/A   Clear
6:56 AM 43.9 °F 39.9 °F 23.0 °F 44% 30.05 in 10.0 mi South 6.9 mph - N/A   Clear
7:56 AM 46.9 °F - 21.0 °F 36% 30.08 in 10.0 mi SW 6.9 mph - N/A   Clear
8:56 AM 54.0 °F - 22.1 °F 29% 30.12 in 10.0 mi NE 10.4 mph - N/A   Clear
9:56 AM 54.0 °F - 21.0 °F 28% 30.16 in 10.0 mi ENE 15.0 mph 21.9 mph N/A   Clear
10:56 AM 55.9 °F - 21.0 °F 26% 30.17 in 10.0 mi ENE 12.7 mph - N/A   Clear
11:56 AM 55.9 °F - 20.1 °F 25% 30.17 in 10.0 mi NE 13.8 mph 19.6 mph N/A   Clear
12:56 PM 56.8 °F - 20.1 °F 24% 30.17 in 10.0 mi NE 16.1 mph 19.6 mph N/A   Clear
1:56 PM 57.9 °F - 20.1 °F 23% 30.17 in 10.0 mi NE 11.5 mph - N/A   Clear
2:56 PM 57.9 °F - 19.0 °F 22% 30.17 in 10.0 mi NE 10.4 mph - N/A   Clear
3:56 PM 55.9 °F - 19.0 °F 24% 30.18 in 10.0 mi NE 13.8 mph - N/A   Clear
4:56 PM 52.0 °F - 18.1 °F 26% 30.21 in 10.0 mi NE 10.4 mph - N/A   Clear
5:56 PM 50.0 °F - 18.1 °F 28% 30.22 in 10.0 mi NE 9.2 mph - N/A   Clear
6:56 PM 47.8 °F - 18.1 °F 31% 30.27 in 10.0 mi Calm Calm - N/A   Clear
7:56 PM 45.9 °F - 16.2 °F 30% 30.29 in 10.0 mi Calm Calm - N/A   Clear
8:56 PM 43.9 °F - 16.2 °F 33% 30.30 in 10.0 mi Calm Calm - N/A   Clear
9:56 PM 39.9 °F - 17.1 °F 40% 30.32 in 10.0 mi Calm Calm - N/A   Clear
10:56 PM 41.9 °F 36.3 °F 17.1 °F 37% 30.31 in 10.0 mi NE 9.2 mph - N/A   Clear
11:56 PM 39.9 °F - 16.2 °F 38% 30.33 in 10.0 mi Calm Calm - N/A   Clear